Location: Darmstadt
(49.8706°N, 8.6494°E)
Time: 06:26:55
(UTC+01:00)

Cosmos 44 Rocket - Pass Details

Date: 31 October 2020
Orbit: 642 x 748 km, 65.1° (Epoch: 03 December)

Event Time Altitude Azimuth Distance (km) Brightness Sun altitude
Rises 18:54:53 0° 210° (SSW) 2,989 7.0 -18.3°
Reaches altitude 10° 18:57:09 10° 208° (SSW) 2,095 6.1 -18.7°
Maximum altitude 19:01:53 69° 125° (SE) 737 3.2 -19.5°
Enters shadow 19:03:51 36° 53° (NE) 1,106 3.9 -19.8°
